Hourly Weather Duchan

Today, 23 January, Saturday

Time Temperature Precipitation Wind Pressure Humidity
00:00 +11°C° 0 mm 8 mps 763 mmHg 67%
01:00 +11°C° 0 mm 7 mps 763 mmHg 68%
02:00 +11°C° 0 mm 7 mps 763 mmHg 69%
03:00 +10°C° 0 mm 7 mps 762 mmHg 71%
04:00 +10°C° 0 mm 7 mps 763 mmHg 71%
05:00 +10°C° 0 mm 7 mps 763 mmHg 72%
06:00 +10°C° 0 mm 7 mps 763 mmHg 72%
07:00 +12°C° 0 mm 7 mps 764 mmHg 67%
08:00 +15°C° 0 mm 7 mps 764 mmHg 62%
09:00 +16°C° 0 mm 7 mps 764 mmHg 56%
10:00 +17°C° 0 mm 7 mps 764 mmHg 52%
11:00 +20°C° 0 mm 7 mps 764 mmHg 49%
12:00 +21°C° 0 mm 6 mps 763 mmHg 45%
13:00 +20°C° 0 mm 6 mps 763 mmHg 45%
14:00 +20°C° 0 mm 6 mps 762 mmHg 45%
15:00 +20°C° 0 mm 6 mps 762 mmHg 45%
16:00 +19°C° 0 mm 5 mps 762 mmHg 52%
17:00 +16°C° 0 mm 5 mps 762 mmHg 58%
18:00 +15°C° 0 mm 5 mps 762 mmHg 64%
19:00 +14°C° 0 mm 5 mps 763 mmHg 66%
20:00 +14°C° 0 mm 4 mps 763 mmHg 69%
21:00 +14°C° 0 mm 4 mps 763 mmHg 71%
22:00 +14°C° 0 mm 4 mps 763 mmHg 71%
23:00 +14°C° 0 mm 4 mps 763 mmHg 72%

Tomorrow, 24 January, Sunday

Time Temperature Precipitation Wind Pressure Humidity
00:00 +14°C° 0 mm 4 mps 762 mmHg 73%
01:00 +13°C° 0 mm 5 mps 762 mmHg 75%
02:00 +13°C° 0 mm 5 mps 762 mmHg 77%
03:00 +13°C° 0 mm 5 mps 762 mmHg 79%
04:00 +13°C° 0 mm 5 mps 762 mmHg 80%
05:00 +13°C° 0 mm 5 mps 762 mmHg 81%
06:00 +13°C° 0 mm 5 mps 763 mmHg 81%
07:00 +14°C° 0 mm 5 mps 763 mmHg 73%
08:00 +16°C° 0 mm 5 mps 763 mmHg 65%
09:00 +17°C° 0 mm 5 mps 764 mmHg 56%
10:00 +19°C° 0 mm 5 mps 763 mmHg 52%
11:00 +20°C° 0 mm 5 mps 763 mmHg 48%
12:00 +21°C° 0 mm 4 mps 763 mmHg 44%
13:00 +21°C° 0 mm 4 mps 762 mmHg 42%
14:00 +20°C° 0 mm 4 mps 762 mmHg 40%
15:00 +20°C° 0 mm 4 mps 761 mmHg 37%
16:00 +19°C° 0 mm 4 mps 761 mmHg 44%
17:00 +17°C° 0 mm 4 mps 761 mmHg 51%
18:00 +14°C° 0 mm 3 mps 762 mmHg 58%
19:00 +14°C° 0 mm 3 mps 762 mmHg 62%
20:00 +14°C° 0 mm 4 mps 762 mmHg 67%
21:00 +13°C° 0 mm 4 mps 762 mmHg 71%
22:00 +13°C° 0 mm 4 mps 762 mmHg 74%
23:00 +13°C° 0 mm 4 mps 762 mmHg 76%

Day after tomorrow, 25 January, Monday

Time Temperature Precipitation Wind Pressure Humidity
00:00 +13°C° 0 mm 4 mps 762 mmHg 79%
01:00 +13°C° 0 mm 4 mps 761 mmHg 78%
02:00 +13°C° 0 mm 4 mps 761 mmHg 78%
03:00 +13°C° 0 mm 5 mps 761 mmHg 78%
04:00 +13°C° 0 mm 5 mps 761 mmHg 76%
05:00 +13°C° 0 mm 5 mps 762 mmHg 75%
06:00 +13°C° 0 mm 5 mps 762 mmHg 74%
07:00 +15°C° 0 mm 5 mps 762 mmHg 65%
08:00 +16°C° 0 mm 6 mps 763 mmHg 57%
09:00 +19°C° 0 mm 6 mps 763 mmHg 48%
10:00 +20°C° 0 mm 6 mps 763 mmHg 45%
11:00 +21°C° 0 mm 6 mps 762 mmHg 41%
12:00 +22°C° 0 mm 6 mps 762 mmHg 37%
13:00 +22°C° 0 mm 5 mps 761 mmHg 37%
14:00 +22°C° 0 mm 5 mps 761 mmHg 37%
15:00 +23°C° 0 mm 5 mps 761 mmHg 37%
16:00 +21°C° 0 mm 4 mps 761 mmHg 47%
17:00 +19°C° 0 mm 4 mps 761 mmHg 57%
18:00 +17°C° 0 mm 4 mps 761 mmHg 67%
19:00 +15°C° 0 mm 4 mps 762 mmHg 71%
20:00 +15°C° 0 mm 4 mps 762 mmHg 75%
21:00 +15°C° 0 mm 4 mps 762 mmHg 79%
22:00 +15°C° 0 mm 4 mps 762 mmHg 79%
23:00 +15°C° 0 mm 4 mps 762 mmHg 79%

26 January, Tuesday

Time Temperature Precipitation Wind Pressure Humidity
00:00 +14°C° 0 mm 4 mps 761 mmHg 80%
01:00 +14°C° 0 mm 4 mps 761 mmHg 78%
02:00 +14°C° 0 mm 4 mps 761 mmHg 77%
03:00 +14°C° 0 mm 4 mps 761 mmHg 76%
04:00 +14°C° 0 mm 4 mps 761 mmHg 76%
05:00 +14°C° 0 mm 4 mps 761 mmHg 76%
06:00 +14°C° 0 mm 5 mps 761 mmHg 76%
07:00 +16°C° 0 mm 5 mps 762 mmHg 66%
08:00 +19°C° 0 mm 5 mps 762 mmHg 57%
09:00 +20°C° 0 mm 5 mps 763 mmHg 47%
10:00 +22°C° 0 mm 5 mps 762 mmHg 42%
11:00 +23°C° 0 mm 5 mps 762 mmHg 36%
12:00 +25°C° 0 mm 5 mps 761 mmHg 30%
13:00 +25°C° 0 mm 5 mps 761 mmHg 30%
14:00 +25°C° 0 mm 5 mps 761 mmHg 31%
15:00 +25°C° 0 mm 5 mps 760 mmHg 31%
16:00 +22°C° 0 mm 5 mps 760 mmHg 42%
17:00 +20°C° 0 mm 4 mps 760 mmHg 52%
18:00 +18°C° 0 mm 4 mps 760 mmHg 63%
19:00 +17°C° 0 mm 4 mps 761 mmHg 67%
20:00 +17°C° 0 mm 4 mps 761 mmHg 70%
21:00 +15°C° 0 mm 4 mps 761 mmHg 74%
22:00 +15°C° 0 mm 4 mps 761 mmHg 75%
23:00 +15°C° 0 mm 4 mps 761 mmHg 76%

27 January, Wednesday

Time Temperature Precipitation Wind Pressure Humidity
00:00 +15°C° 0 mm 4 mps 760 mmHg 76%
01:00 +15°C° 0 mm 4 mps 760 mmHg 75%
02:00 +15°C° 0 mm 4 mps 760 mmHg 73%
03:00 +15°C° 0 mm 4 mps 760 mmHg 71%
04:00 +15°C° 0 mm 4 mps 760 mmHg 71%
05:00 +14°C° 0 mm 4 mps 760 mmHg 71%
06:00 +14°C° 0 mm 4 mps 761 mmHg 71%
07:00 +17°C° 0 mm 4 mps 761 mmHg 61%
08:00 +19°C° 0 mm 4 mps 761 mmHg 51%
09:00 +21°C° 0 mm 4 mps 761 mmHg 42%
10:00 +22°C° 0 mm 4 mps 761 mmHg 36%
11:00 +25°C° 0 mm 4 mps 761 mmHg 31%
12:00 +26°C° 0 mm 4 mps 760 mmHg 25%
13:00 +26°C° 0 mm 4 mps 760 mmHg 25%
14:00 +26°C° 0 mm 4 mps 759 mmHg 25%
15:00 +26°C° 0 mm 4 mps 759 mmHg 25%
16:00 +22°C° 0 mm 3 mps 759 mmHg 33%
17:00 +20°C° 0 mm 3 mps 759 mmHg 42%
18:00 +18°C° 0 mm 3 mps 759 mmHg 51%
19:00 +17°C° 0 mm 3 mps 759 mmHg 57%
20:00 +16°C° 0 mm 2 mps 759 mmHg 63%
21:00 +15°C° 0 mm 2 mps 759 mmHg 69%
22:00 +15°C° 0 mm 2 mps 759 mmHg 69%
23:00 +14°C° 0 mm 2 mps 759 mmHg 70%

28 January, Thursday

Time Temperature Precipitation Wind Pressure Humidity
00:00 +14°C° 0 mm 2 mps 758 mmHg 71%
01:00 +14°C° 0 mm 2 mps 758 mmHg 72%
02:00 +13°C° 0 mm 1 mps 758 mmHg 72%
03:00 +13°C° 0 mm 1 mps 758 mmHg 73%
04:00 +12°C° 0 mm 1 mps 758 mmHg 73%
05:00 +12°C° 0 mm 1 mps 758 mmHg 73%
06:00 +12°C° 0 mm 1 mps 759 mmHg 74%
07:00 +15°C° 0 mm 1 mps 759 mmHg 61%
08:00 +19°C° 0 mm 1 mps 759 mmHg 49%
09:00 +21°C° 0 mm 2 mps 760 mmHg 36%
10:00 +24°C° 0 mm 1 mps 759 mmHg 31%
11:00 +25°C° 0 mm 1 mps 759 mmHg 25%
12:00 +27°C° 0 mm 1 mps 758 mmHg 20%
13:00 +27°C° 0 mm 1 mps 758 mmHg 19%
14:00 +28°C° 0 mm 1 mps 757 mmHg 19%
15:00 +28°C° 0 mm 1 mps 757 mmHg 19%
16:00 +26°C° 0 mm 2 mps 757 mmHg 29%
17:00 +22°C° 0 mm 3 mps 757 mmHg 39%
18:00 +19°C° 0 mm 4 mps 757 mmHg 49%
19:00 +19°C° 0 mm 4 mps 758 mmHg 52%
20:00 +18°C° 0 mm 4 mps 758 mmHg 55%
21:00 +18°C° 0 mm 4 mps 758 mmHg 58%
Show more